[[{"header":{"parameterUnit":"m.s-1","parameterCategory":1,"la1":30.2991,"la2":30.254,"lo1":-89.0895,"lo2":-89.0444,"dy":0.0017,"dx":0.0017,"nx":28,"ny":28,"refTime":"2023-03-30T15:00:00:Z","depth":0,"parameterNumber":2,"parameterNumberName":"U-component_of_WINDS"},"data":[0,0,0,0,0,0,0,0,0,0,0,0,0,0,0,0,0,0,0,0,0,0,0,0,0,0,0,0,0,0,0,0,0,0,0,0,0,0,0,0,0,0,0,0,0,0,0,0,0,0,0,0,0,0,0,0,0,0,3.2054,3.2054,0,3.1979,3.1978,3.1978,3.192,3.1919,3.1919,3.1918,3.1839,3.1838,3.1836,0,0,0,0,0,0,0,0,0,0,0,0,0,3.2145,3.2144,3.2055,3.2054,3.2053,3.1979,3.1978,3.1977,3.192,3.1919,3.1919,3.1918,3.184,3.1838,3.1836,0,0,0,0,0,0,0,0,0,0,0,0,0,3.2091,3.2143,3.2055,3.2015,3.2011,3.198,3.1978,3.1977,3.192,3.1919,3.1918,3.1918,3.184,3.1838,3.1836,3.1837,0,0,3.1828,3.1827,0,0,0,0,0,0,0,0,3.2094,3.2088,3.2022,3.2018,3.2013,3.1958,3.1981,3.193,3.192,3.1954,3.1918,3.1917,3.1879,3.1874,3.1861,3.1833,3.183,3.1828,3.1826,3.1825,3.1825,0,0,0,0,0,0,0,3.2098,3.2091,3.2025,3.2021,3.2016,3.2,3.1992,3.1971,3.1922,3.1951,3.1947,3.1939,3.1877,3.1864,3.1859,3.1829,3.1828,3.1826,3.1824,3.1823,3.1795,3.1795,0,0,0,0,0,0,3.2109,3.2094,3.2027,3.2022,3.2053,3.1999,3.199,3.1976,3.1922,3.1913,3.194,3.1937,3.1868,3.1862,3.1856,3.1852,3.1825,3.1823,3.1822,3.1794,3.1795,3.1796,0,0,0,0,0,0,3.2111,3.2103,3.203,3.2057,3.2047,3.1998,3.1984,3.1975,3.1962,3.1914,3.1904,3.1936,3.1867,3.1859,3.1841,3.1848,3.1822,3.182,3.1793,3.1794,3.1795,3.1845,0,0,0,0,0,0,3.2114,3.2104,3.2105,3.2058,3.2046,3.2018,3.1985,3.1975,3.1959,3.1954,3.1907,3.1899,3.1866,3.1845,3.1839,3.1844,3.1818,3.1792,3.1794,3.1795,3.1843,3.1848,3.1852,0,0,0,0,0,3.2117,3.2122,3.2106,3.2098,3.2046,3.2019,3.2012,3.1974,3.196,3.1959,3.1927,3.19,3.1849,3.1844,3.1836,3.1841,3.1792,3.1793,3.1795,3.184,3.1847,3.1852,0,0,0,0,0,0,3.2171,3.2115,3.2096,3.2086,3.2058,3.2009,3.2008,3.1983,3.1957,3.1954,3.1908,3.1898,3.1884,3.1861,3.1857,3.1838,3.1817,3.1817,3.1854,3.1859,3.1864,3.1869,3.1816,0,0,0,0,0,3.2182,3.2166,3.2118,3.2114,3.21,3.2057,3.2044,3.2017,3.1985,3.1973,3.194,3.1909,3.1886,3.1872,3.1848,3.1839,3.1827,3.1839,3.1843,3.1847,3.1848,3.1839,3.1843,3.1801,3.1801,3.1801,0,0,3.2205,3.2172,3.2164,3.2124,3.2098,3.2081,3.2047,3.2031,3.2017,3.197,3.1951,3.1926,3.1888,3.1875,3.1867,3.1855,3.1857,3.1849,3.1853,3.1851,3.1841,3.1845,3.1849,3.1802,3.1802,3.1801,0,0,3.2236,3.2211,3.2203,3.2179,3.2141,3.2112,3.211,3.2065,3.2046,3.2026,3.199,3.1973,3.1934,3.1908,3.189,3.191,3.1883,3.1904,3.1928,3.192,3.1923,3.1926,3.1931,3.1934,3.1904,3.1904,3.1905,0,3.2268,3.2242,3.2203,3.2188,3.217,3.2128,3.2119,3.2097,3.2053,3.2041,3.2028,3.1977,3.1949,3.1928,3.1933,3.192,3.1915,3.1908,3.1926,3.1929,3.193,3.1935,3.1937,3.1907,3.1907,3.1906,3.1906,0,3.2282,3.2264,3.2263,3.2221,3.2203,3.2192,3.215,3.2136,3.2111,3.2083,3.2062,3.2027,3.1994,3.1987,3.1963,3.1962,3.1955,3.1935,3.1912,3.1938,3.1941,3.1942,3.1911,3.191,3.1909,3.1908,0,0,3.2346,3.2282,3.2282,3.2262,3.2217,3.2201,3.2187,3.2155,3.2143,3.2114,3.21,3.2068,3.2048,3.2028,3.2,3.1993,3.2008,3.1973,3.1971,3.1979,3.2002,3.2017,3.2019,3.1991,3.1991,3.1991,3.2005,0,3.2368,3.2341,3.2305,3.229,3.2271,3.223,3.2217,3.2187,3.216,3.2139,3.2109,3.2086,3.2063,3.205,3.2041,3.2008,3.2012,3.2007,3.1975,3.1974,3.1984,3.2021,3.2037,3.2052,3.2006,3.2006,3.2006,0,3.2392,3.2365,3.2347,3.2302,3.2293,3.2282,3.2249,3.223,3.2194,3.2175,3.2151,3.2121,3.2102,3.2083,3.2054,3.2052,3.2036,3.2018,3.2018,3.2012,3.1991,3.2015,3.2056,3.2057,3.2008,3.2008,3.2008,0,3.2437,3.2397,3.2381,3.2365,3.2312,3.2305,3.2282,3.2246,3.2228,3.2199,3.2187,3.2156,3.2138,3.2114,3.2076,3.2065,3.2051,3.2029,3.2032,3.2033,3.203,3.2031,3.2067,3.2023,3.2023,3.2023,3.2023,0,3.2466,3.2456,3.24,3.239,3.2378,3.2336,3.2324,3.2297,3.2265,3.2248,3.221,3.2194,3.2145,3.2123,3.2093,3.2073,3.2066,3.2048,3.204,3.2051,3.2053,3.2039,3.2036,3.2024,3.2024,3.2024,3.2024,0,3.2515,3.2477,3.2456,3.2407,3.2395,3.2387,3.2345,3.2333,3.2303,3.2281,3.2274,3.2227,3.2199,3.2158,3.2118,3.2097,3.2081,3.2069,3.2094,3.2089,3.2094,3.2093,3.2122,3.2122,3.208,3.2081,3.2081,0,3.2535,3.2526,3.2476,3.2462,3.2441,3.2419,3.2401,3.2359,3.2341,3.2299,3.2291,3.2261,3.2234,3.219,3.2152,3.212,3.2106,3.2118,3.2101,3.2111,3.2104,3.2104,3.2102,3.2122,3.2122,3.2123,3.2123,0,3.2573,3.2555,3.2531,3.2499,3.2479,3.2452,3.2424,3.2414,3.2365,3.2347,3.2318,3.2297,3.2256,3.2225,3.2188,3.2163,3.2134,3.2129,3.2128,3.2138,3.2152,3.2143,3.2103,3.2129,3.2128,3.2128,3.2127,3.2127,3.2607,3.2597,3.256,3.2533,3.2507,3.2481,3.2467,3.2435,3.2411,3.2374,3.235,3.2322,3.2284,3.2232,3.2208,3.2184,3.2172,3.2171,3.2171,3.2171,3.2173,3.2157,3.2177,3.2177,3.2177,3.2177,3.2177,0,3.2642,3.2616,3.2592,3.2553,3.2532,3.2508,3.2475,3.2458,3.2434,3.2402,3.2376,3.2342,3.2311,3.227,3.2236,3.2225,3.2211,3.2217,3.2217,3.2211,3.2187,3.219,3.2229,3.2229,3.2229,3.2229,3.2229,3.2229,3.2658,3.2639,3.2616,3.2583,3.2556,3.2529,3.2511,3.2486,3.246,3.2424,3.2398,3.2372,3.2335,3.2298,3.2268,3.2257,3.2245,3.2255,3.224,3.2218,3.2213,3.2208,3.2211,3.2253,3.2254,3.2265,3.2265,3.2265]},{"header":{"parameterUnit":"m.s-1","parameterCategory":1,"la1":30.2991,"la2":30.254,"lo1":-89.0895,"lo2":-89.0444,"dy":0.0017,"dx":0.0017,"nx":28,"ny":28,"refTime":"2023-03-30T15:00:00:Z","depth":0,"parameterNumber":3,"parameterNumberName":"V-component_of_WINDS"},"data":[0,0,0,0,0,0,0,0,0,0,0,0,0,0,0,0,0,0,0,0,0,0,0,0,0,0,0,0,0,0,0,0,0,0,0,0,0,0,0,0,0,0,0,0,0,0,0,0,0,0,0,0,0,0,0,0,0,0,2.5261,2.5261,0,2.527,2.527,2.527,2.5256,2.5255,2.5255,2.5254,2.5262,2.5263,2.5263,0,0,0,0,0,0,0,0,0,0,0,0,0,2.5231,2.5232,2.5261,2.5261,2.5261,2.527,2.527,2.527,2.5256,2.5255,2.5254,2.5254,2.5262,2.5263,2.5263,0,0,0,0,0,0,0,0,0,0,0,0,0,2.5242,2.5232,2.5261,2.5255,2.5255,2.527,2.527,2.527,2.5256,2.5255,2.5254,2.5254,2.5262,2.5263,2.5264,2.5284,0,0,2.5267,2.5267,0,0,0,0,0,0,0,0,2.5242,2.5243,2.5256,2.5256,2.5255,2.5261,2.5262,2.5275,2.5256,2.5255,2.5254,2.5253,2.5262,2.5263,2.5266,2.5284,2.5285,2.5267,2.5267,2.5268,2.5268,0,0,0,0,0,0,0,2.5241,2.5243,2.5264,2.5256,2.5256,2.5252,2.5253,2.5264,2.5263,2.5255,2.5254,2.5256,2.5262,2.5265,2.5266,2.5285,2.5267,2.5267,2.5268,2.5268,2.532,2.5321,0,0,0,0,0,0,2.5241,2.5242,2.5264,2.5265,2.5247,2.5253,2.5254,2.526,2.5263,2.5262,2.5256,2.5255,2.5264,2.5265,2.5267,2.5291,2.5268,2.5269,2.5269,2.5319,2.532,2.5321,0,0,0,0,0,0,2.5241,2.5243,2.5264,2.5253,2.5256,2.5254,2.5261,2.526,2.5264,2.5263,2.5263,2.526,2.5263,2.5265,2.528,2.5291,2.5269,2.527,2.5318,2.5319,2.532,2.5339,0,0,0,0,0,0,2.524,2.5243,2.5251,2.5254,2.5256,2.5278,2.5262,2.5261,2.5266,2.5264,2.5267,2.5267,2.5263,2.5278,2.5281,2.5292,2.5271,2.5317,2.5319,2.532,2.5338,2.5341,2.5344,0,0,0,0,0,2.5239,2.5256,2.5252,2.5255,2.5267,2.5278,2.528,2.5275,2.5267,2.5275,2.5274,2.5267,2.5289,2.528,2.5283,2.5294,2.5316,2.5318,2.532,2.5336,2.534,2.5344,0,0,0,0,0,0,2.5255,2.5257,2.5252,2.5271,2.5274,2.5276,2.5286,2.528,2.5286,2.5284,2.5278,2.5279,2.5295,2.5296,2.5286,2.5314,2.5301,2.5304,2.5313,2.5317,2.532,2.5319,2.5272,0,0,0,0,0,2.5261,2.5271,2.5271,2.5288,2.529,2.5288,2.5292,2.5289,2.5292,2.5294,2.5294,2.5298,2.5306,2.5311,2.5318,2.5337,2.5338,2.5346,2.5349,2.5352,2.5354,2.5364,2.5368,2.5326,2.5326,2.5326,0,0,2.5273,2.5275,2.5282,2.5291,2.5294,2.5303,2.5289,2.53,2.5307,2.5295,2.5309,2.531,2.5313,2.533,2.5338,2.5331,2.5366,2.5354,2.5356,2.5357,2.5366,2.537,2.5374,2.5328,2.5327,2.5327,0,0,2.5301,2.5303,2.5317,2.532,2.5324,2.5322,2.5325,2.5327,2.5327,2.5341,2.5332,2.534,2.5354,2.5357,2.536,2.5387,2.538,2.539,2.5406,2.5415,2.5419,2.5421,2.5431,2.5435,2.5392,2.5392,2.5392,0,2.5316,2.533,2.5325,2.5337,2.5341,2.533,2.5344,2.5347,2.5353,2.5356,2.5349,2.5365,2.5367,2.5384,2.5391,2.5394,2.5397,2.539,2.5419,2.5421,2.5424,2.5433,2.5437,2.5393,2.5393,2.5393,2.5392,0,2.5348,2.5358,2.5369,2.5375,2.538,2.5393,2.5389,2.5395,2.539,2.5389,2.5403,2.5404,2.5411,2.5415,2.5411,2.5432,2.5428,2.542,2.5407,2.5429,2.5438,2.5441,2.5394,2.5394,2.5394,2.5393,0,0,2.5387,2.539,2.5394,2.5396,2.5399,2.5407,2.5418,2.5425,2.543,2.5434,2.5444,2.5455,2.5448,2.5451,2.5447,2.5456,2.5477,2.5446,2.5446,2.5452,2.55,2.5506,2.5511,2.5472,2.5473,2.5473,2.55,0,2.5414,2.5435,2.543,2.545,2.5459,2.5449,2.5459,2.5462,2.5461,2.5468,2.5466,2.5475,2.5464,2.5466,2.5474,2.5473,2.5487,2.5471,2.5481,2.5481,2.5481,2.5515,2.5522,2.5547,2.5503,2.5504,2.5504,0,2.5449,2.5455,2.5476,2.5477,2.5481,2.549,2.5496,2.5503,2.5505,2.5504,2.5507,2.5501,2.5512,2.5499,2.5514,2.5503,2.5507,2.5507,2.5508,2.5509,2.5495,2.5518,2.5555,2.5559,2.5509,2.5509,2.5508,0,2.5476,2.5488,2.5503,2.5505,2.5506,2.5513,2.5514,2.5516,2.552,2.5525,2.5528,2.5534,2.5537,2.5541,2.5537,2.5528,2.5553,2.5539,2.5552,2.5552,2.5558,2.5558,2.5597,2.556,2.556,2.5559,2.5559,0,2.5507,2.552,2.5514,2.5523,2.5538,2.5531,2.5546,2.5545,2.5547,2.5555,2.5546,2.5554,2.5548,2.5555,2.5551,2.5564,2.5565,2.5564,2.5564,2.5566,2.5566,2.5568,2.5567,2.556,2.556,2.556,2.556,0,2.554,2.5536,2.5551,2.5551,2.5551,2.5562,2.5562,2.5569,2.5567,2.5578,2.558,2.5576,2.5584,2.558,2.5588,2.5586,2.5602,2.5599,2.5602,2.5601,2.5614,2.5613,2.5656,2.5662,2.5621,2.5621,2.5622,0,2.556,2.557,2.5571,2.5576,2.5577,2.5585,2.559,2.5584,2.5588,2.5592,2.5599,2.5606,2.5612,2.5624,2.5623,2.5629,2.5625,2.564,2.5626,2.5628,2.5626,2.5626,2.5626,2.5643,2.5644,2.5644,2.5644,0,2.5597,2.5594,2.5601,2.5607,2.5612,2.5616,2.562,2.5624,2.5618,2.5624,2.5632,2.5636,2.5644,2.5651,2.5656,2.5657,2.565,2.5648,2.5652,2.5654,2.5656,2.5655,2.561,2.5648,2.5647,2.5647,2.5647,2.5647,2.5624,2.5632,2.5634,2.5642,2.5643,2.5647,2.5654,2.5653,2.5659,2.5665,2.5661,2.5671,2.5672,2.5678,2.568,2.5687,2.5681,2.5685,2.5687,2.5688,2.569,2.5654,2.5687,2.5687,2.5687,2.5687,2.5687,0,2.566,2.5661,2.5668,2.5673,2.5679,2.5671,2.5674,2.568,2.5688,2.569,2.5695,2.5704,2.5711,2.5709,2.5715,2.5721,2.5718,2.5723,2.5723,2.5723,2.5695,2.5691,2.5725,2.5725,2.5725,2.5725,2.5725,2.5725,2.568,2.5694,2.5691,2.5705,2.5706,2.5715,2.5717,2.572,2.5722,2.5732,2.5738,2.5736,2.5737,2.5743,2.5748,2.5748,2.575,2.5757,2.5755,2.5729,2.5725,2.5721,2.5718,2.5757,2.5757,2.5782,2.5783,2.5783]}]]